User: anonymous   Login
Location: Slidell
(30.2789°N, 89.7378°W)
Time: 04:39:53
(UTC-05:00)
Language:

Cosmos 2360 Rocket - Orbit

View from above orbital plane
View from above orbital plane
View from above satellite
View from above satellite

Ground track
Ground track

The orbit data is extracted from the following two-line orbital elements,

1 25407U 98045B   14304.45338888  .00000245  00000-0  14904-3 0  6059
2 25407 071.0123 258.1565 0009491 239.2932 230.2131 14.15672774840355
Epoch (UTC): 31 October 2014 10:52:52
Eccentricity: 0.0009491
inclination: 71.0123°
perigee height: 833 km
apogee height: 847 km
right ascension of ascending node: 258.1565°
argument of perigee: 239.2932°
revolutions per day: 14.15672774
mean anomaly at epoch: 230.2131°
orbit number at epoch: 84035

The dashed part of the orbit path shows where the satellite is in the earth's shadow,  

DLR